Time,TemperatureF,DewpointF,PressureIn,WindDirection,WindDirectionDegrees,WindSpeedMPH,WindSpeedGustMPH,Humidity,HourlyPrecipIn,Conditions,Clouds,dailyrainin,SoftwareType,DateUTC
2013-07-07 00:01:00,76.3,62.3,30.01,NW,307,0.0,0.0,62,0.00,,,0.00,WeatherCatV1.15B25,2013-07-07 04:01:00,
2013-07-07 00:02:00,76.2,62.2,30.01,NW,307,0.0,0.0,62,0.00,,,0.00,WeatherCatV1.15B25,2013-07-07 04:02:00,
2013-07-07 00:03:00,76.2,62.7,30.01,NW,307,0.0,0.0,63,0.00,,,0.00,WeatherCatV1.15B25,2013-07-07 04:03:00,
2013-07-07 00:08:00,76.1,62.1,30.01,NW,307,0.0,0.0,62,0.00,,,0.00,WeatherCatV1.15B25,2013-07-07 04:08:00,
2013-07-07 00:13:00,75.8,62.3,30.01,NW,307,0.0,0.0,63,0.00,,,0.00,WeatherCatV1.15B25,2013-07-07 04:13:00,
2013-07-07 00:18:00,75.8,62.7,30.01,NW,307,0.0,0.0,64,0.00,,,0.00,WeatherCatV1.15B25,2013-07-07 04:18:00,
2013-07-07 00:23:00,75.7,62.6,30.01,NW,326,0.0,0.0,64,0.00,,,0.00,WeatherCatV1.15B25,2013-07-07 04:23:00,
2013-07-07 00:28:00,75.8,62.7,30.01,NNW,330,0.0,1.0,64,0.00,,,0.00,WeatherCatV1.15B25,2013-07-07 04:28:00,
2013-07-07 00:34:00,75.8,62.3,30.01,NW,325,0.0,1.0,63,0.00,,,0.00,WeatherCatV1.15B25,2013-07-07 04:34:00,
2013-07-07 00:39:00,75.8,62.7,30.01,NNW,345,0.0,0.0,64,0.00,,,0.00,WeatherCatV1.15B25,2013-07-07 04:39:00,
2013-07-07 00:44:00,75.8,62.7,30.01,NNW,344,0.0,1.0,64,0.00,,,0.00,WeatherCatV1.15B25,2013-07-07 04:44:00,
2013-07-07 00:49:00,75.9,62.8,30.01,NNW,344,0.0,0.0,64,0.00,,,0.00,WeatherCatV1.15B25,2013-07-07 04:49:00,
2013-07-07 00:54:00,76.2,62.2,30.01,NNW,330,1.0,2.0,62,0.00,,,0.00,WeatherCatV1.15B25,2013-07-07 04:54:00,
2013-07-07 00:59:00,76.5,62.5,30.01,NNW,338,1.0,1.0,62,0.00,,,0.00,WeatherCatV1.15B25,2013-07-07 04:59:00,
2013-07-07 01:04:00,76.6,62.1,30.01,NNW,338,0.0,1.0,61,0.00,,,0.00,WeatherCatV1.15B25,2013-07-07 05:04:00,
2013-07-07 01:09:00,76.6,63.0,30.01,NNW,338,0.0,0.0,63,0.00,,,0.00,WeatherCatV1.15B25,2013-07-07 05:09:00,
2013-07-07 01:14:00,76.4,62.9,30.01,NNW,338,0.0,0.0,63,0.00,,,0.00,WeatherCatV1.15B25,2013-07-07 05:14:00,
2013-07-07 01:19:00,76.0,62.9,30.01,NNW,338,0.0,0.0,64,0.00,,,0.00,WeatherCatV1.15B25,2013-07-07 05:19:00,
2013-07-07 01:24:00,75.5,62.9,30.01,NNW,338,0.0,0.0,65,0.00,,,0.00,WeatherCatV1.15B25,2013-07-07 05:24:00,
2013-07-07 01:29:00,75.1,62.9,30.01,NNW,338,0.0,0.0,66,0.00,,,0.00,WeatherCatV1.15B25,2013-07-07 05:29:00,
2013-07-07 01:34:00,74.8,62.7,30.01,NNW,338,0.0,0.0,66,0.00,,,0.00,WeatherCatV1.15B25,2013-07-07 05:34:00,
2013-07-07 01:39:00,74.5,62.8,30.01,NNW,338,0.0,0.0,67,0.00,,,0.00,WeatherCatV1.15B25,2013-07-07 05:39:00,
2013-07-07 01:44:00,74.5,61.9,30.01,WNW,294,0.0,1.0,65,0.00,,,0.00,WeatherCatV1.15B25,2013-07-07 05:44:00,
2013-07-07 01:49:00,74.6,62.5,30.01,WNW,294,0.0,0.0,66,0.00,,,0.00,WeatherCatV1.15B25,2013-07-07 05:49:00,
2013-07-07 01:54:00,74.5,62.4,30.01,WNW,292,0.0,0.0,66,0.00,,,0.00,WeatherCatV1.15B25,2013-07-07 05:54:00,
2013-07-07 01:59:00,74.3,62.2,30.01,WNW,292,0.0,0.0,66,0.00,,,0.00,WeatherCatV1.15B25,2013-07-07 05:59:00,
2013-07-07 02:04:00,74.0,61.9,30.01,WNW,292,0.0,0.0,66,0.00,,,0.00,WeatherCatV1.15B25,2013-07-07 06:04:00,
2013-07-07 02:09:00,73.7,61.6,30.01,WNW,292,0.0,0.0,66,0.00,,,0.00,WeatherCatV1.15B25,2013-07-07 06:09:00,
2013-07-07 02:14:00,73.5,61.9,30.01,WNW,292,0.0,0.0,67,0.00,,,0.00,WeatherCatV1.15B25,2013-07-07 06:14:00,
2013-07-07 02:19:00,73.2,62.0,30.01,WNW,292,0.0,0.0,68,0.00,,,0.00,WeatherCatV1.15B25,2013-07-07 06:19:00,
2013-07-07 02:24:00,72.9,61.7,30.00,WNW,292,0.0,0.0,68,0.00,,,0.00,WeatherCatV1.15B25,2013-07-07 06:24:00,
2013-07-07 02:29:00,72.6,61.8,30.01,WNW,292,0.0,0.0,69,0.00,,,0.00,WeatherCatV1.15B25,2013-07-07 06:29:00,
2013-07-07 02:34:00,72.4,62.0,30.01,WNW,292,0.0,0.0,70,0.00,,,0.00,WeatherCatV1.15B25,2013-07-07 06:34:00,
2013-07-07 02:39:00,72.2,61.9,30.00,WNW,292,0.0,0.0,70,0.00,,,0.00,WeatherCatV1.15B25,2013-07-07 06:39:00,
2013-07-07 02:44:00,72.0,62.1,30.00,WNW,292,0.0,0.0,71,0.00,,,0.00,WeatherCatV1.15B25,2013-07-07 06:44:00,
2013-07-07 02:49:00,71.9,62.0,30.01,WNW,292,0.0,0.0,71,0.00,,,0.00,WeatherCatV1.15B25,2013-07-07 06:49:00,
2013-07-07 02:54:00,71.8,61.9,30.00,WNW,292,0.0,0.0,71,0.00,,,0.00,WeatherCatV1.15B25,2013-07-07 06:54:00,
2013-07-07 02:59:00,71.7,62.2,30.01,WNW,292,0.0,0.0,72,0.00,,,0.00,WeatherCatV1.15B25,2013-07-07 06:59:00,
2013-07-07 03:04:00,71.6,62.1,30.00,WNW,292,0.0,0.0,72,0.00,,,0.00,WeatherCatV1.15B25,2013-07-07 07:04:00,
2013-07-07 03:09:00,71.5,62.0,30.00,WNW,292,0.0,0.0,72,0.00,,,0.00,WeatherCatV1.15B25,2013-07-07 07:09:00,
2013-07-07 03:14:00,71.4,62.3,30.00,WNW,292,0.0,0.0,73,0.00,,,0.00,WeatherCatV1.15B25,2013-07-07 07:14:00,
2013-07-07 03:19:00,71.2,62.5,30.00,WNW,292,0.0,0.0,74,0.00,,,0.00,WeatherCatV1.15B25,2013-07-07 07:19:00,
2013-07-07 03:24:00,71.1,62.4,30.00,WNW,292,0.0,1.0,74,0.00,,,0.00,WeatherCatV1.15B25,2013-07-07 07:24:00,
2013-07-07 03:29:00,71.0,62.7,30.00,WNW,292,0.0,0.0,75,0.00,,,0.00,WeatherCatV1.15B25,2013-07-07 07:29:00,
2013-07-07 03:34:00,70.8,62.5,30.00,WNW,292,0.0,0.0,75,0.00,,,0.00,WeatherCatV1.15B25,2013-07-07 07:34:00,
2013-07-07 03:39:00,70.7,62.8,30.00,WNW,292,0.0,0.0,76,0.00,,,0.00,WeatherCatV1.15B25,2013-07-07 07:39:00,
2013-07-07 03:44:00,70.6,62.7,30.00,WNW,292,0.0,0.0,76,0.00,,,0.00,WeatherCatV1.15B25,2013-07-07 07:44:00,
2013-07-07 03:49:00,70.5,62.9,30.00,WNW,292,0.0,0.0,77,0.00,,,0.00,WeatherCatV1.15B25,2013-07-07 07:49:00,
2013-07-07 03:54:00,70.4,62.8,30.00,WNW,292,0.0,1.0,77,0.00,,,0.00,WeatherCatV1.15B25,2013-07-07 07:54:00,
2013-07-07 03:59:00,70.4,63.2,30.00,WNW,292,0.0,0.0,78,0.00,,,0.00,WeatherCatV1.15B25,2013-07-07 07:59:00,
2013-07-07 04:04:00,70.3,63.1,30.00,WNW,292,0.0,0.0,78,0.00,,,0.00,WeatherCatV1.15B25,2013-07-07 08:04:00,
2013-07-07 04:09:00,70.4,63.2,30.00,WNW,292,0.0,0.0,78,0.00,,,0.00,WeatherCatV1.15B25,2013-07-07 08:09:00,
2013-07-07 04:14:00,70.5,63.3,30.00,WNW,300,0.0,1.0,78,0.00,,,0.00,WeatherCatV1.15B25,2013-07-07 08:14:00,
2013-07-07 04:19:00,70.8,63.6,30.00,WNW,299,0.0,0.0,78,0.00,,,0.00,WeatherCatV1.15B25,2013-07-07 08:19:00,
2013-07-07 04:24:00,70.9,63.7,30.00,WNW,299,0.0,0.0,78,0.00,,,0.00,WeatherCatV1.15B25,2013-07-07 08:24:00,
2013-07-07 04:29:00,70.9,63.7,30.00,WNW,299,0.0,0.0,78,0.00,,,0.00,WeatherCatV1.15B25,2013-07-07 08:29:00,
2013-07-07 04:34:00,70.9,64.1,30.00,WNW,299,0.0,0.0,79,0.00,,,0.00,WeatherCatV1.15B25,2013-07-07 08:34:00,
2013-07-07 04:39:00,70.8,64.0,30.00,WNW,299,0.0,0.0,79,0.00,,,0.00,WeatherCatV1.15B25,2013-07-07 08:39:00,
2013-07-07 04:44:00,70.7,63.9,30.00,WNW,299,0.0,0.0,79,0.00,,,0.00,WeatherCatV1.15B25,2013-07-07 08:44:00,
2013-07-07 04:49:00,70.4,63.6,30.00,WNW,299,0.0,0.0,79,0.00,,,0.00,WeatherCatV1.15B25,2013-07-07 08:49:00,
2013-07-07 04:54:00,70.2,63.7,30.00,WNW,299,0.0,0.0,80,0.00,,,0.00,WeatherCatV1.15B25,2013-07-07 08:54:00,
2013-07-07 04:59:00,70.0,63.9,30.00,WNW,299,0.0,0.0,81,0.00,,,0.00,WeatherCatV1.15B25,2013-07-07 08:59:00,
2013-07-07 05:04:00,69.8,63.7,30.00,WNW,299,0.0,0.0,81,0.00,,,0.00,WeatherCatV1.15B25,2013-07-07 09:04:00,
2013-07-07 05:09:00,69.6,63.9,30.00,WNW,299,0.0,0.0,82,0.00,,,0.00,WeatherCatV1.15B25,2013-07-07 09:09:00,
2013-07-07 05:14:00,69.4,63.7,30.00,WNW,299,0.0,0.0,82,0.00,,,0.00,WeatherCatV1.15B25,2013-07-07 09:14:00,
2013-07-07 05:19:00,69.3,63.9,30.00,WNW,299,0.0,0.0,83,0.00,,,0.00,WeatherCatV1.15B25,2013-07-07 09:19:00,
2013-07-07 05:24:00,69.1,63.7,30.00,WNW,299,0.0,0.0,83,0.00,,,0.00,WeatherCatV1.15B25,2013-07-07 09:24:00,
2013-07-07 05:29:00,69.1,63.7,30.00,WNW,299,0.0,0.0,83,0.00,,,0.00,WeatherCatV1.15B25,2013-07-07 09:29:00,
2013-07-07 05:34:00,69.1,63.7,30.00,WNW,299,0.0,0.0,83,0.00,,,0.00,WeatherCatV1.15B25,2013-07-07 09:34:00,
2013-07-07 05:39:00,69.0,63.6,30.00,WNW,299,0.0,0.0,83,0.00,,,0.00,WeatherCatV1.15B25,2013-07-07 09:39:00,
2013-07-07 05:44:00,68.8,63.4,30.00,WNW,299,0.0,0.0,83,0.00,,,0.00,WeatherCatV1.15B25,2013-07-07 09:44:00,
2013-07-07 05:49:00,68.8,63.8,30.00,WNW,299,0.0,0.0,84,0.00,,,0.00,WeatherCatV1.15B25,2013-07-07 09:49:00,
2013-07-07 05:54:00,68.7,63.7,30.00,WNW,299,0.0,0.0,84,0.00,,,0.00,WeatherCatV1.15B25,2013-07-07 09:54:00,
2013-07-07 05:59:00,68.7,64.0,30.00,WNW,299,0.0,0.0,85,0.00,,,0.00,WeatherCatV1.15B25,2013-07-07 09:59:00,
2013-07-07 06:04:00,68.8,64.1,30.00,WNW,299,0.0,0.0,85,0.00,,,0.00,WeatherCatV1.15B25,2013-07-07 10:04:00,
2013-07-07 06:09:00,68.9,64.5,30.00,WNW,299,0.0,0.0,86,0.00,,,0.00,WeatherCatV1.15B25,2013-07-07 10:09:00,
2013-07-07 06:14:00,69.0,64.3,30.00,WNW,299,0.0,0.0,85,0.00,,,0.00,WeatherCatV1.15B25,2013-07-07 10:14:00,
2013-07-07 06:19:00,69.3,64.6,30.00,WNW,299,0.0,0.0,85,0.00,,,0.00,WeatherCatV1.15B25,2013-07-07 10:19:00,
2013-07-07 06:24:00,69.5,64.8,30.00,WNW,299,0.0,0.0,85,0.00,,,0.00,WeatherCatV1.15B25,2013-07-07 10:24:00,
2013-07-07 06:29:00,69.9,65.2,30.00,WNW,299,0.0,0.0,85,0.00,,,0.00,WeatherCatV1.15B25,2013-07-07 10:29:00,
2013-07-07 06:34:00,70.1,65.4,30.00,WNW,299,0.0,1.0,85,0.00,,,0.00,WeatherCatV1.15B25,2013-07-07 10:34:00,
2013-07-07 06:39:00,70.2,65.5,30.00,WNW,299,0.0,0.0,85,0.00,,,0.00,WeatherCatV1.15B25,2013-07-07 10:39:00,
2013-07-07 06:44:00,70.3,65.6,30.00,WNW,299,0.0,0.0,85,0.00,,,0.00,WeatherCatV1.15B25,2013-07-07 10:44:00,
2013-07-07 06:49:00,70.4,65.7,30.01,WNW,299,0.0,0.0,85,0.00,,,0.00,WeatherCatV1.15B25,2013-07-07 10:49:00,
2013-07-07 06:54:00,70.5,65.8,30.01,WNW,299,0.0,0.0,85,0.00,,,0.00,WeatherCatV1.15B25,2013-07-07 10:54:00,
2013-07-07 06:59:00,70.9,65.8,30.01,WNW,299,0.0,0.0,84,0.00,,,0.00,WeatherCatV1.15B25,2013-07-07 10:59:00,
2013-07-07 07:04:00,71.8,66.0,30.01,WNW,299,0.0,1.0,82,0.00,,,0.00,WeatherCatV1.15B25,2013-07-07 11:04:00,
2013-07-07 07:09:00,72.7,65.8,30.01,NNW,347,0.0,1.0,79,0.00,,,0.00,WeatherCatV1.15B25,2013-07-07 11:09:00,
2013-07-07 07:14:00,73.5,66.2,30.01,NNW,347,0.0,1.0,78,0.00,,,0.00,WeatherCatV1.15B25,2013-07-07 11:14:00,
2013-07-07 07:19:00,74.2,65.8,30.01,NW,311,0.0,1.0,75,0.00,,,0.00,WeatherCatV1.15B25,2013-07-07 11:19:00,
2013-07-07 07:24:00,74.8,65.9,30.01,NW,312,1.0,1.0,74,0.00,,,0.00,WeatherCatV1.15B25,2013-07-07 11:24:00,
2013-07-07 07:29:00,75.1,66.2,30.01,NW,323,2.0,3.0,74,0.00,,,0.00,WeatherCatV1.15B25,2013-07-07 11:29:00,
2013-07-07 07:34:00,75.4,66.5,30.01,NW,323,0.0,0.0,74,0.00,,,0.00,WeatherCatV1.15B25,2013-07-07 11:34:00,
2013-07-07 07:39:00,75.6,65.9,30.01,NW,320,1.0,2.0,72,0.00,,,0.00,WeatherCatV1.15B25,2013-07-07 11:39:00,
2013-07-07 07:44:00,75.8,65.7,30.01,WNW,285,2.0,2.0,71,0.00,,,0.00,WeatherCatV1.15B25,2013-07-07 11:44:00,
2013-07-07 07:49:00,76.0,66.3,30.01,West,281,0.0,1.0,72,0.00,,,0.00,WeatherCatV1.15B25,2013-07-07 11:49:00,
2013-07-07 07:54:00,76.2,66.9,30.01,West,281,0.0,1.0,73,0.00,,,0.00,WeatherCatV1.15B25,2013-07-07 11:54:00,
2013-07-07 07:59:00,76.4,66.7,30.01,West,274,0.0,1.0,72,0.00,,,0.00,WeatherCatV1.15B25,2013-07-07 11:59:00,
2013-07-07 08:04:00,76.6,66.9,30.01,WNW,298,0.0,4.0,72,0.00,,,0.00,WeatherCatV1.15B25,2013-07-07 12:04:00,
2013-07-07 08:09:00,77.0,66.4,30.01,WNW,293,4.0,5.0,70,0.00,,,0.00,WeatherCatV1.15B25,2013-07-07 12:09:00,
2013-07-07 08:14:00,77.4,66.4,30.01,NNE,16,0.0,5.0,69,0.00,,,0.00,WeatherCatV1.15B25,2013-07-07 12:14:00,
2013-07-07 08:19:00,77.6,66.2,30.01,NW,320,1.0,3.0,68,0.00,,,0.00,WeatherCatV1.15B25,2013-07-07 12:19:00,
2013-07-07 08:25:00,77.7,66.3,30.01,NW,322,0.0,2.0,68,0.00,,,0.00,WeatherCatV1.15B25,2013-07-07 12:25:00,
2013-07-07 08:30:00,77.7,67.1,30.01,NW,326,0.0,0.0,70,0.00,,,0.00,WeatherCatV1.15B25,2013-07-07 12:30:00,
2013-07-07 08:35:00,77.7,66.3,30.01,WNW,295,2.0,3.0,68,0.00,,,0.00,WeatherCatV1.15B25,2013-07-07 12:35:00,
2013-07-07 08:40:00,77.7,66.7,30.01,WNW,297,3.0,3.0,69,0.00,,,0.00,WeatherCatV1.15B25,2013-07-07 12:40:00,
2013-07-07 08:45:00,78.0,66.6,30.01,North,1,1.0,3.0,68,0.00,,,0.00,WeatherCatV1.15B25,2013-07-07 12:45:00,
2013-07-07 08:50:00,78.2,67.2,30.01,NW,321,1.0,2.0,69,0.00,,,0.00,WeatherCatV1.15B25,2013-07-07 12:50:00,
2013-07-07 08:55:00,78.4,66.9,30.01,North,2,1.0,2.0,68,0.00,,,0.00,WeatherCatV1.15B25,2013-07-07 12:55:00,
2013-07-07 09:00:00,78.5,67.5,30.01,NNW,345,3.0,4.0,69,0.00,,,0.00,WeatherCatV1.15B25,2013-07-07 13:00:00,
2013-07-07 09:05:00,78.8,67.7,30.01,NNW,339,0.0,2.0,69,0.00,,,0.00,WeatherCatV1.15B25,2013-07-07 13:05:00,
2013-07-07 09:10:00,79.1,67.6,30.00,NW,314,1.0,3.0,68,0.00,,,0.00,WeatherCatV1.15B25,2013-07-07 13:10:00,
2013-07-07 09:15:00,79.4,67.5,30.00,North,352,2.0,3.0,67,0.00,,,0.00,WeatherCatV1.15B25,2013-07-07 13:15:00,
2013-07-07 09:20:00,79.7,67.3,30.00,SSW,207,0.0,2.0,66,0.00,,,0.00,WeatherCatV1.15B25,2013-07-07 13:20:00,
2013-07-07 09:25:00,80.2,67.3,30.00,NNW,329,1.0,3.0,65,0.00,,,0.00,WeatherCatV1.15B25,2013-07-07 13:25:00,
2013-07-07 09:30:00,80.8,67.9,30.00,NW,323,2.0,3.0,65,0.00,,,0.00,WeatherCatV1.15B25,2013-07-07 13:30:00,
2013-07-07 09:35:00,81.1,67.3,30.00,North,351,0.0,4.0,63,0.00,,,0.00,WeatherCatV1.15B25,2013-07-07 13:35:00,
2013-07-07 09:40:00,81.4,68.0,30.00,NNW,333,1.0,2.0,64,0.00,,,0.00,WeatherCatV1.15B25,2013-07-07 13:40:00,
2013-07-07 09:45:00,81.6,66.8,30.00,WNW,293,1.0,7.0,61,0.00,,,0.00,WeatherCatV1.15B25,2013-07-07 13:45:00,
2013-07-07 09:50:00,82.0,67.7,30.00,WNW,295,2.0,2.0,62,0.00,,,0.00,WeatherCatV1.15B25,2013-07-07 13:50:00,
2013-07-07 09:55:00,82.3,67.0,30.00,NW,316,1.0,6.0,60,0.00,,,0.00,WeatherCatV1.15B25,2013-07-07 13:55:00,
2013-07-07 10:00:00,82.5,66.7,29.99,WNW,283,4.0,5.0,59,0.00,,,0.00,WeatherCatV1.15B25,2013-07-07 14:00:00,
2013-07-07 10:05:00,82.6,66.8,30.00,WNW,297,0.0,1.0,59,0.00,,,0.00,WeatherCatV1.15B25,2013-07-07 14:05:00,
2013-07-07 10:10:00,82.6,67.3,30.00,WNW,302,2.0,3.0,60,0.00,,,0.00,WeatherCatV1.15B25,2013-07-07 14:10:00,
2013-07-07 10:15:00,82.6,66.8,29.99,WNW,288,0.0,6.0,59,0.00,,,0.00,WeatherCatV1.15B25,2013-07-07 14:15:00,
2013-07-07 10:20:00,83.0,67.2,29.99,West,259,0.0,1.0,59,0.00,,,0.00,WeatherCatV1.15B25,2013-07-07 14:20:00,
2013-07-07 10:25:00,83.7,67.3,29.99,NW,306,0.0,3.0,58,0.00,,,0.00,WeatherCatV1.15B25,2013-07-07 14:25:00,
2013-07-07 10:30:00,84.4,68.5,29.99,NE,50,0.0,1.0,59,0.00,,,0.00,WeatherCatV1.15B25,2013-07-07 14:30:00,
2013-07-07 10:35:00,85.0,67.0,29.99,NE,37,0.0,2.0,55,0.00,,,0.00,WeatherCatV1.15B25,2013-07-07 14:35:00,
2013-07-07 10:40:00,85.1,67.1,29.99,NE,39,1.0,2.0,55,0.00,,,0.00,WeatherCatV1.15B25,2013-07-07 14:40:00,
2013-07-07 10:45:00,84.8,66.8,30.00,North,4,1.0,5.0,55,0.00,,,0.00,WeatherCatV1.15B25,2013-07-07 14:45:00,
2013-07-07 10:50:00,84.7,68.3,30.00,NNW,340,1.0,2.0,58,0.00,,,0.00,WeatherCatV1.15B25,2013-07-07 14:50:00,
2013-07-07 10:55:00,84.6,68.7,30.00,NNW,336,0.0,1.0,59,0.00,,,0.00,WeatherCatV1.15B25,2013-07-07 14:55:00,
2013-07-07 11:00:00,84.5,69.1,30.00,NNW,338,1.0,2.0,60,0.00,,,0.00,WeatherCatV1.15B25,2013-07-07 15:00:00,
2013-07-07 11:05:00,84.4,69.4,30.00,NNW,332,1.0,2.0,61,0.00,,,0.00,WeatherCatV1.15B25,2013-07-07 15:05:00,
2013-07-07 11:10:00,84.4,70.4,30.00,NW,314,2.0,4.0,63,0.00,,,0.00,WeatherCatV1.15B25,2013-07-07 15:10:00,
2013-07-07 11:15:00,84.7,69.7,29.99,ENE,65,0.0,1.0,61,0.00,,,0.00,WeatherCatV1.15B25,2013-07-07 15:15:00,
2013-07-07 11:20:00,85.1,70.1,30.00,NW,320,0.0,2.0,61,0.00,,,0.00,WeatherCatV1.15B25,2013-07-07 15:20:00,
2013-07-07 11:25:00,85.3,70.3,30.00,NNW,347,1.0,2.0,61,0.00,,,0.00,WeatherCatV1.15B25,2013-07-07 15:25:00,
2013-07-07 11:30:00,85.4,70.4,30.00,NNE,19,1.0,2.0,61,0.00,,,0.00,WeatherCatV1.15B25,2013-07-07 15:30:00,
2013-07-07 11:35:00,85.4,69.9,29.99,NNW,347,2.0,4.0,60,0.00,,,0.00,WeatherCatV1.15B25,2013-07-07 15:35:00,
2013-07-07 11:40:00,85.5,71.4,29.99,North,352,1.0,1.0,63,0.00,,,0.00,WeatherCatV1.15B25,2013-07-07 15:40:00,
2013-07-07 11:45:00,85.7,70.2,29.99,NNW,335,1.0,2.0,60,0.00,,,0.00,WeatherCatV1.15B25,2013-07-07 15:45:00,
2013-07-07 11:50:00,85.8,70.3,29.99,South,178,0.0,1.0,60,0.00,,,0.00,WeatherCatV1.15B25,2013-07-07 15:50:00,
2013-07-07 11:55:00,85.7,71.1,29.99,NNW,347,1.0,1.0,62,0.00,,,0.00,WeatherCatV1.15B25,2013-07-07 15:55:00,
2013-07-07 12:00:00,85.7,71.6,29.99,NNE,15,1.0,2.0,63,0.00,,,0.00,WeatherCatV1.15B25,2013-07-07 16:00:00,
2013-07-07 12:05:00,85.7,70.2,29.99,NW,323,1.0,4.0,60,0.00,,,0.00,WeatherCatV1.15B25,2013-07-07 16:05:00,
2013-07-07 12:10:00,85.6,71.5,29.99,SW,216,0.0,1.0,63,0.00,,,0.00,WeatherCatV1.15B25,2013-07-07 16:10:00,
2013-07-07 12:15:00,85.9,71.8,29.99,NNE,15,0.0,1.0,63,0.00,,,0.00,WeatherCatV1.15B25,2013-07-07 16:15:00,
2013-07-07 12:20:00,86.4,70.8,29.99,NW,324,0.0,2.0,60,0.00,,,0.00,WeatherCatV1.15B25,2013-07-07 16:20:00,
2013-07-07 12:25:00,86.5,71.4,29.99,East,79,1.0,2.0,61,0.00,,,0.00,WeatherCatV1.15B25,2013-07-07 16:25:00,
2013-07-07 12:30:00,86.3,70.2,29.99,WNW,295,1.0,6.0,59,0.00,,,0.00,WeatherCatV1.15B25,2013-07-07 16:30:00,
2013-07-07 12:35:00,86.0,71.4,29.99,SSW,207,1.0,1.0,62,0.00,,,0.00,WeatherCatV1.15B25,2013-07-07 16:35:00,
2013-07-07 12:40:00,86.0,71.4,29.99,NW,319,1.0,2.0,62,0.00,,,0.00,WeatherCatV1.15B25,2013-07-07 16:40:00,
2013-07-07 12:45:00,86.2,70.2,29.98,North,349,2.0,2.0,59,0.00,,,0.00,WeatherCatV1.15B25,2013-07-07 16:45:00,
2013-07-07 12:50:00,86.4,69.3,29.99,WNW,294,4.0,5.0,57,0.00,,,0.00,WeatherCatV1.15B25,2013-07-07 16:50:00,
2013-07-07 12:55:00,86.7,69.6,29.98,NW,304,3.0,6.0,57,0.00,,,0.00,WeatherCatV1.15B25,2013-07-07 16:55:00,
2013-07-07 13:00:00,87.1,69.5,29.98,West,266,1.0,2.0,56,0.00,,,0.00,WeatherCatV1.15B25,2013-07-07 17:00:00,
2013-07-07 13:05:00,87.6,68.3,29.98,NNW,340,2.0,5.0,53,0.00,,,0.00,WeatherCatV1.15B25,2013-07-07 17:05:00,
2013-07-07 13:06:00,87.7,68.4,29.98,NW,317,2.0,5.0,53,0.00,,,0.00,WeatherCatV1.15B25,2013-07-07 17:06:00,
2013-07-07 13:11:00,87.9,68.6,29.98,NNE,25,2.0,3.0,53,0.00,,,0.00,WeatherCatV1.15B25,2013-07-07 17:11:00,
2013-07-07 13:16:00,88.5,69.1,29.98,NNW,346,1.0,1.0,53,0.00,,,0.00,WeatherCatV1.15B25,2013-07-07 17:16:00,
2013-07-07 13:21:00,88.7,68.8,29.98,NNW,340,2.0,6.0,52,0.00,,,0.00,WeatherCatV1.15B25,2013-07-07 17:21:00,
2013-07-07 13:26:00,88.8,69.4,29.98,ENE,71,1.0,3.0,53,0.00,,,0.00,WeatherCatV1.15B25,2013-07-07 17:26:00,
2013-07-07 13:31:00,88.8,70.0,29.97,NW,318,3.0,5.0,54,0.00,,,0.00,WeatherCatV1.15B25,2013-07-07 17:31:00,
2013-07-07 13:36:00,88.7,69.3,29.97,NW,319,3.0,4.0,53,0.00,,,0.00,WeatherCatV1.15B25,2013-07-07 17:36:00,
2013-07-07 13:41:00,89.1,70.8,29.97,North,354,0.0,1.0,55,0.00,,,0.00,WeatherCatV1.15B25,2013-07-07 17:41:00,
2013-07-07 13:46:00,89.6,71.3,29.97,ENE,70,1.0,1.0,55,0.00,,,0.00,WeatherCatV1.15B25,2013-07-07 17:46:00,
2013-07-07 13:51:00,90.3,70.8,29.97,WNW,301,1.0,6.0,53,0.00,,,0.00,WeatherCatV1.15B25,2013-07-07 17:51:00,
2013-07-07 13:56:00,90.2,71.3,29.97,ESE,106,1.0,1.0,54,0.00,,,0.00,WeatherCatV1.15B25,2013-07-07 17:56:00,
2013-07-07 14:01:00,90.3,72.4,29.96,North,1,2.0,3.0,56,0.00,,,0.00,WeatherCatV1.15B25,2013-07-07 18:01:00,
2013-07-07 14:06:00,90.3,71.9,29.96,WNW,290,4.0,5.0,55,0.00,,,0.00,WeatherCatV1.15B25,2013-07-07 18:06:00,
2013-07-07 14:11:00,90.2,71.8,29.96,SSW,195,0.0,0.0,55,0.00,,,0.00,WeatherCatV1.15B25,2013-07-07 18:11:00,
2013-07-07 14:16:00,90.8,71.8,29.96,NW,309,1.0,4.0,54,0.00,,,0.00,WeatherCatV1.15B25,2013-07-07 18:16:00,
2013-07-07 14:21:00,90.0,71.6,29.96,NNE,22,1.0,2.0,55,0.00,,,0.00,WeatherCatV1.15B25,2013-07-07 18:21:00,
2013-07-07 14:26:00,90.0,72.7,29.95,WNW,287,2.0,4.0,57,0.00,,,0.00,WeatherCatV1.15B25,2013-07-07 18:26:00,
2013-07-07 14:31:00,89.9,71.5,29.95,North,358,0.0,4.0,55,0.00,,,0.00,WeatherCatV1.15B25,2013-07-07 18:31:00,
2013-07-07 14:36:00,90.0,72.2,29.95,North,355,0.0,1.0,56,0.00,,,0.00,WeatherCatV1.15B25,2013-07-07 18:36:00,
2013-07-07 14:41:00,90.6,72.2,29.94,North,2,0.0,4.0,55,0.00,,,0.00,WeatherCatV1.15B25,2013-07-07 18:41:00,
2013-07-07 14:46:00,90.8,72.9,29.94,ENE,75,1.0,4.0,56,0.00,,,0.00,WeatherCatV1.15B25,2013-07-07 18:46:00,
2013-07-07 14:51:00,91.2,72.2,29.94,North,1,1.0,4.0,54,0.00,,,0.00,WeatherCatV1.15B25,2013-07-07 18:51:00,
2013-07-07 14:56:00,91.0,73.1,29.94,NW,319,0.0,2.0,56,0.00,,,0.00,WeatherCatV1.15B25,2013-07-07 18:56:00,
2013-07-07 15:01:00,91.0,72.5,29.93,North,357,0.0,3.0,55,0.00,,,0.00,WeatherCatV1.15B25,2013-07-07 19:01:00,
2013-07-07 15:06:00,91.2,73.3,29.93,East,86,0.0,3.0,56,0.00,,,0.00,WeatherCatV1.15B25,2013-07-07 19:06:00,
2013-07-07 15:11:00,91.4,72.9,29.93,NNW,342,2.0,4.0,55,0.00,,,0.00,WeatherCatV1.15B25,2013-07-07 19:11:00,
2013-07-07 15:16:00,91.6,74.2,29.93,North,354,2.0,2.0,57,0.00,,,0.00,WeatherCatV1.15B25,2013-07-07 19:16:00,
2013-07-07 15:21:00,91.8,73.3,29.93,North,4,1.0,3.0,55,0.00,,,0.00,WeatherCatV1.15B25,2013-07-07 19:21:00,
2013-07-07 15:26:00,91.4,72.9,29.93,NW,323,2.0,5.0,55,0.00,,,0.00,WeatherCatV1.15B25,2013-07-07 19:26:00,
2013-07-07 15:31:00,91.0,73.1,29.93,North,9,2.0,3.0,56,0.00,,,0.00,WeatherCatV1.15B25,2013-07-07 19:31:00,
2013-07-07 15:36:00,91.0,73.6,29.93,NNW,337,1.0,3.0,57,0.00,,,0.00,WeatherCatV1.15B25,2013-07-07 19:36:00,
2013-07-07 15:41:00,91.0,73.1,29.93,WSW,243,1.0,2.0,56,0.00,,,0.00,WeatherCatV1.15B25,2013-07-07 19:41:00,
2013-07-07 15:46:00,90.9,73.5,29.93,NNW,339,0.0,1.0,57,0.00,,,0.00,WeatherCatV1.15B25,2013-07-07 19:46:00,
2013-07-07 15:51:00,90.6,73.8,29.93,NNW,343,0.0,2.0,58,0.00,,,0.00,WeatherCatV1.15B25,2013-07-07 19:51:00,
2013-07-07 15:56:00,89.9,73.6,29.92,NNW,344,0.0,1.0,59,0.00,,,0.00,WeatherCatV1.15B25,2013-07-07 19:56:00,
2013-07-07 16:01:00,89.6,73.8,29.92,North,359,0.0,1.0,60,0.00,,,0.00,WeatherCatV1.15B25,2013-07-07 20:01:00,
2013-07-07 16:06:00,89.3,73.6,29.92,NNE,15,1.0,2.0,60,0.00,,,0.00,WeatherCatV1.15B25,2013-07-07 20:06:00,
2013-07-07 16:11:00,88.9,74.2,29.92,ESE,110,0.0,1.0,62,0.00,,,0.00,WeatherCatV1.15B25,2013-07-07 20:11:00,
2013-07-07 16:16:00,88.6,73.4,29.92,ESE,109,0.0,1.0,61,0.00,,,0.00,WeatherCatV1.15B25,2013-07-07 20:16:00,
2013-07-07 16:21:00,88.2,74.0,29.92,ESE,109,0.0,1.0,63,0.00,,,0.00,WeatherCatV1.15B25,2013-07-07 20:21:00,
2013-07-07 16:26:00,87.9,74.6,29.91,ESE,109,0.0,1.0,65,0.00,,,0.00,WeatherCatV1.15B25,2013-07-07 20:26:00,
2013-07-07 16:31:00,87.6,75.3,29.91,ESE,109,0.0,1.0,67,0.00,,,0.00,WeatherCatV1.15B25,2013-07-07 20:31:00,
2013-07-07 16:36:00,87.5,75.6,29.91,ESE,109,0.0,0.0,68,0.00,,,0.00,WeatherCatV1.15B25,2013-07-07 20:36:00,
2013-07-07 16:41:00,87.5,75.6,29.91,ESE,109,0.0,0.0,68,0.00,,,0.00,WeatherCatV1.15B25,2013-07-07 20:41:00,
2013-07-07 16:46:00,87.2,75.8,29.92,ESE,109,0.0,0.0,69,0.00,,,0.00,WeatherCatV1.15B25,2013-07-07 20:46:00,
2013-07-07 16:51:00,87.1,75.7,29.92,ESE,109,0.0,1.0,69,0.00,,,0.00,WeatherCatV1.15B25,2013-07-07 20:51:00,
2013-07-07 16:56:00,87.0,75.6,29.92,ESE,109,0.0,0.0,69,0.00,,,0.00,WeatherCatV1.15B25,2013-07-07 20:56:00,
2013-07-07 17:01:00,87.0,75.6,29.92,ESE,109,0.0,0.0,69,0.00,,,0.00,WeatherCatV1.15B25,2013-07-07 21:01:00,
2013-07-07 17:06:00,86.9,75.0,29.92,ESE,109,0.0,1.0,68,0.00,,,0.00,WeatherCatV1.15B25,2013-07-07 21:06:00,
2013-07-07 17:11:00,86.9,75.0,29.92,ESE,110,0.0,2.0,68,0.00,,,0.00,WeatherCatV1.15B25,2013-07-07 21:11:00,
2013-07-07 17:16:00,86.8,75.4,29.91,ESE,109,0.0,1.0,69,0.00,,,0.00,WeatherCatV1.15B25,2013-07-07 21:16:00,
2013-07-07 17:21:00,86.7,76.1,29.91,ESE,110,0.0,1.0,71,0.00,,,0.00,WeatherCatV1.15B25,2013-07-07 21:21:00,
2013-07-07 17:26:00,86.4,75.4,29.91,ESE,114,0.0,0.0,70,0.00,,,0.00,WeatherCatV1.15B25,2013-07-07 21:26:00,
2013-07-07 17:31:00,86.3,75.8,29.91,ESE,114,0.0,1.0,71,0.00,,,0.00,WeatherCatV1.15B25,2013-07-07 21:31:00,
2013-07-07 17:36:00,86.1,75.6,29.91,ESE,114,0.0,0.0,71,0.00,,,0.00,WeatherCatV1.15B25,2013-07-07 21:36:00,
2013-07-07 17:41:00,86.0,75.5,29.91,ESE,113,0.0,1.0,71,0.00,,,0.00,WeatherCatV1.15B25,2013-07-07 21:41:00,
2013-07-07 17:46:00,85.9,75.8,29.91,ESE,114,0.0,1.0,72,0.00,,,0.00,WeatherCatV1.15B25,2013-07-07 21:46:00,
2013-07-07 17:51:00,85.8,75.3,29.91,ESE,114,0.0,0.0,71,0.00,,,0.00,WeatherCatV1.15B25,2013-07-07 21:51:00,
2013-07-07 17:56:00,85.6,75.1,29.91,NNE,27,0.0,2.0,71,0.00,,,0.00,WeatherCatV1.15B25,2013-07-07 21:56:00,
2013-07-07 18:01:00,85.6,75.5,29.90,NE,43,0.0,1.0,72,0.00,,,0.00,WeatherCatV1.15B25,2013-07-07 22:01:00,
2013-07-07 18:06:00,85.5,75.4,29.90,NNW,348,0.0,0.0,72,0.00,,,0.00,WeatherCatV1.15B25,2013-07-07 22:06:00,
2013-07-07 18:11:00,85.4,74.9,29.91,ESE,112,0.0,1.0,71,0.00,,,0.00,WeatherCatV1.15B25,2013-07-07 22:11:00,
2013-07-07 18:16:00,85.5,75.4,29.91,ESE,123,0.0,3.0,72,0.00,,,0.00,WeatherCatV1.15B25,2013-07-07 22:16:00,
2013-07-07 18:21:00,85.2,75.1,29.91,ESE,109,0.0,0.0,72,0.00,,,0.00,WeatherCatV1.15B25,2013-07-07 22:21:00,
2013-07-07 18:26:00,84.9,74.8,29.91,ESE,104,0.0,2.0,72,0.00,,,0.00,WeatherCatV1.15B25,2013-07-07 22:26:00,
2013-07-07 18:31:00,84.4,73.9,29.91,East,80,0.0,1.0,71,0.00,,,0.00,WeatherCatV1.15B25,2013-07-07 22:31:00,
2013-07-07 18:36:00,84.1,73.7,29.91,ESE,120,2.0,4.0,71,0.00,,,0.00,WeatherCatV1.15B25,2013-07-07 22:36:00,
2013-07-07 18:41:00,83.8,74.6,29.91,NNW,336,2.0,2.0,74,0.00,,,0.00,WeatherCatV1.15B25,2013-07-07 22:41:00,
2013-07-07 18:46:00,83.2,74.8,29.90,ENE,72,0.0,1.0,76,0.00,,,0.00,WeatherCatV1.15B25,2013-07-07 22:46:00,
2013-07-07 18:51:00,82.7,75.5,29.89,ESE,123,0.0,0.0,79,0.00,,,0.00,WeatherCatV1.15B25,2013-07-07 22:51:00,
2013-07-07 18:56:00,82.1,75.3,29.89,ESE,119,0.0,3.0,80,0.00,,,0.00,WeatherCatV1.15B25,2013-07-07 22:56:00,
2013-07-07 19:01:00,81.6,75.6,29.89,ESE,119,0.0,1.0,82,0.00,,,0.00,WeatherCatV1.15B25,2013-07-07 23:01:00,
2013-07-07 19:06:00,81.4,75.4,29.89,ESE,122,3.0,4.0,82,0.00,,,0.00,WeatherCatV1.15B25,2013-07-07 23:06:00,
2013-07-07 19:11:00,81.0,75.3,29.90,ESE,120,0.0,1.0,83,0.00,,,0.00,WeatherCatV1.15B25,2013-07-07 23:11:00,
2013-07-07 19:16:00,80.9,75.2,29.90,North,354,0.0,1.0,83,0.00,,,0.00,WeatherCatV1.15B25,2013-07-07 23:16:00,
2013-07-07 19:21:00,80.8,75.5,29.90,North,353,0.0,1.0,84,0.00,,,0.00,WeatherCatV1.15B25,2013-07-07 23:21:00,
2013-07-07 19:26:00,80.8,75.5,29.91,North,353,0.0,0.0,84,0.00,,,0.00,WeatherCatV1.15B25,2013-07-07 23:26:00,
2013-07-07 19:31:00,80.7,75.4,29.91,ESE,121,0.0,1.0,84,0.00,,,0.00,WeatherCatV1.15B25,2013-07-07 23:31:00,
2013-07-07 19:36:00,80.6,75.7,29.91,NNE,13,1.0,2.0,85,0.00,,,0.00,WeatherCatV1.15B25,2013-07-07 23:36:00,
2013-07-07 19:41:00,80.6,75.3,29.91,South,169,0.0,1.0,84,0.00,,,0.00,WeatherCatV1.15B25,2013-07-07 23:41:00,
2013-07-07 19:46:00,80.6,74.9,29.91,WSW,252,0.0,1.0,83,0.00,,,0.00,WeatherCatV1.15B25,2013-07-07 23:46:00,
2013-07-07 19:51:00,80.7,75.0,29.91,WNW,302,0.0,1.0,83,0.00,,,0.00,WeatherCatV1.15B25,2013-07-07 23:51:00,
2013-07-07 19:56:00,80.6,74.9,29.91,NW,304,0.0,1.0,83,0.00,,,0.00,WeatherCatV1.15B25,2013-07-07 23:56:00,
2013-07-07 20:01:00,80.5,74.8,29.91,WNW,303,0.0,0.0,83,0.00,,,0.00,WeatherCatV1.15B25,2013-07-08 00:01:00,
2013-07-07 20:06:00,80.5,74.8,29.92,WNW,303,0.0,0.0,83,0.00,,,0.00,WeatherCatV1.15B25,2013-07-08 00:06:00,
2013-07-07 20:11:00,80.4,74.4,29.92,NE,36,0.0,2.0,82,0.00,,,0.00,WeatherCatV1.15B25,2013-07-08 00:11:00,
2013-07-07 20:16:00,80.3,73.9,29.92,North,7,1.0,2.0,81,0.00,,,0.00,WeatherCatV1.15B25,2013-07-08 00:16:00,
2013-07-07 20:21:00,80.3,73.5,29.92,NW,310,0.0,1.0,80,0.00,,,0.00,WeatherCatV1.15B25,2013-07-08 00:21:00,
2013-07-07 20:26:00,80.3,73.5,29.92,ESE,112,0.0,0.0,80,0.00,,,0.00,WeatherCatV1.15B25,2013-07-08 00:26:00,
2013-07-07 20:31:00,80.2,73.1,29.92,West,270,0.0,1.0,79,0.00,,,0.00,WeatherCatV1.15B25,2013-07-08 00:31:00,
2013-07-07 20:36:00,80.2,72.7,29.92,WNW,297,1.0,1.0,78,0.00,,,0.00,WeatherCatV1.15B25,2013-07-08 00:36:00,
2013-07-07 20:41:00,80.2,73.1,29.92,ESE,115,2.0,3.0,79,0.00,,,0.00,WeatherCatV1.15B25,2013-07-08 00:41:00,
2013-07-07 20:46:00,80.1,72.6,29.92,SE,140,0.0,0.0,78,0.00,,,0.00,WeatherCatV1.15B25,2013-07-08 00:46:00,
2013-07-07 20:51:00,80.1,72.6,29.92,NW,309,0.0,1.0,78,0.00,,,0.00,WeatherCatV1.15B25,2013-07-08 00:51:00,
2013-07-07 20:56:00,80.0,72.9,29.92,ESE,102,0.0,0.0,79,0.00,,,0.00,WeatherCatV1.15B25,2013-07-08 00:56:00,
2013-07-07 21:01:00,79.9,72.8,29.92,East,101,0.0,0.0,79,0.00,,,0.00,WeatherCatV1.15B25,2013-07-08 01:01:00,
2013-07-07 21:06:00,79.7,73.0,29.92,East,101,0.0,1.0,80,0.00,,,0.00,WeatherCatV1.15B25,2013-07-08 01:06:00,
2013-07-07 21:11:00,79.5,72.8,29.92,East,101,0.0,0.0,80,0.00,,,0.00,WeatherCatV1.15B25,2013-07-08 01:11:00,
2013-07-07 21:16:00,79.3,72.6,29.92,East,101,0.0,0.0,80,0.00,,,0.00,WeatherCatV1.15B25,2013-07-08 01:16:00,
2013-07-07 21:21:00,79.1,72.4,29.92,East,101,0.0,0.0,80,0.00,,,0.00,WeatherCatV1.15B25,2013-07-08 01:21:00,
2013-07-07 21:26:00,79.0,72.3,29.92,East,101,0.0,0.0,80,0.00,,,0.00,WeatherCatV1.15B25,2013-07-08 01:26:00,
2013-07-07 21:31:00,78.9,72.6,29.93,NW,307,0.0,0.0,81,0.00,,,0.00,WeatherCatV1.15B25,2013-07-08 01:31:00,
2013-07-07 21:36:00,78.8,72.5,29.93,SSW,206,0.0,0.0,81,0.00,,,0.00,WeatherCatV1.15B25,2013-07-08 01:36:00,
2013-07-07 21:41:00,78.7,72.4,29.93,SSW,206,0.0,0.0,81,0.00,,,0.00,WeatherCatV1.15B25,2013-07-08 01:41:00,
2013-07-07 21:46:00,78.6,72.3,29.93,SSW,206,0.0,0.0,81,0.00,,,0.00,WeatherCatV1.15B25,2013-07-08 01:46:00,
2013-07-07 21:51:00,78.6,72.3,29.93,SSW,206,0.0,0.0,81,0.00,,,0.00,WeatherCatV1.15B25,2013-07-08 01:51:00,
2013-07-07 21:56:00,78.5,72.5,29.93,SW,230,0.0,0.0,82,0.00,,,0.00,WeatherCatV1.15B25,2013-07-08 01:56:00,
2013-07-07 22:01:00,78.4,72.4,29.93,SE,126,0.0,1.0,82,0.00,,,0.00,WeatherCatV1.15B25,2013-07-08 02:01:00,
2013-07-07 22:06:00,78.3,72.3,29.93,SE,126,0.0,0.0,82,0.00,,,0.00,WeatherCatV1.15B25,2013-07-08 02:06:00,
2013-07-07 22:11:00,78.1,72.1,29.93,SSE,155,0.0,0.0,82,0.00,,,0.00,WeatherCatV1.15B25,2013-07-08 02:11:00,
2013-07-07 22:16:00,77.9,71.9,29.93,SSE,155,0.0,0.0,82,0.00,,,0.00,WeatherCatV1.15B25,2013-07-08 02:16:00,
2013-07-07 22:21:00,77.8,71.8,29.93,SSE,155,0.0,0.0,82,0.00,,,0.00,WeatherCatV1.15B25,2013-07-08 02:21:00,
2013-07-07 22:26:00,77.7,72.1,29.93,SSE,155,0.0,0.0,83,0.00,,,0.00,WeatherCatV1.15B25,2013-07-08 02:26:00,
2013-07-07 22:31:00,77.6,71.7,29.93,SSE,155,0.0,0.0,82,0.00,,,0.00,WeatherCatV1.15B25,2013-07-08 02:31:00,
2013-07-07 22:36:00,77.6,71.7,29.93,SSE,155,0.0,0.0,82,0.00,,,0.00,WeatherCatV1.15B25,2013-07-08 02:36:00,
2013-07-07 22:42:00,77.5,71.6,29.93,SSE,155,0.0,0.0,82,0.00,,,0.00,WeatherCatV1.15B25,2013-07-08 02:42:00,
2013-07-07 22:47:00,77.4,71.8,29.93,SSE,155,0.0,0.0,83,0.00,,,0.00,WeatherCatV1.15B25,2013-07-08 02:47:00,
2013-07-07 22:52:00,77.2,71.6,29.93,SSE,155,0.0,0.0,83,0.00,,,0.00,WeatherCatV1.15B25,2013-07-08 02:52:00,
2013-07-07 22:57:00,77.2,71.6,29.93,SSE,155,0.0,0.0,83,0.00,,,0.00,WeatherCatV1.15B25,2013-07-08 02:57:00,
2013-07-07 23:02:00,77.1,71.5,29.93,SSE,155,0.0,0.0,83,0.00,,,0.00,WeatherCatV1.15B25,2013-07-08 03:02:00,
2013-07-07 23:07:00,77.0,71.8,29.93,SSE,155,0.0,0.0,84,0.00,,,0.00,WeatherCatV1.15B25,2013-07-08 03:07:00,
2013-07-07 23:12:00,76.9,71.7,29.93,SSE,155,0.0,0.0,84,0.00,,,0.00,WeatherCatV1.15B25,2013-07-08 03:12:00,
2013-07-07 23:17:00,76.8,71.6,29.93,SSE,155,0.0,0.0,84,0.00,,,0.00,WeatherCatV1.15B25,2013-07-08 03:17:00,
2013-07-07 23:22:00,76.6,71.4,29.93,SSE,155,0.0,0.0,84,0.00,,,0.00,WeatherCatV1.15B25,2013-07-08 03:22:00,
2013-07-07 23:27:00,76.6,71.7,29.93,SSE,155,0.0,0.0,85,0.00,,,0.00,WeatherCatV1.15B25,2013-07-08 03:27:00,
2013-07-07 23:32:00,76.5,71.6,29.92,SSE,155,0.0,0.0,85,0.00,,,0.00,WeatherCatV1.15B25,2013-07-08 03:32:00,
2013-07-07 23:37:00,76.4,71.5,29.92,SSE,155,0.0,0.0,85,0.00,,,0.00,WeatherCatV1.15B25,2013-07-08 03:37:00,
2013-07-07 23:42:00,76.3,71.8,29.92,SSE,155,0.0,0.0,86,0.00,,,0.00,WeatherCatV1.15B25,2013-07-08 03:42:00,
2013-07-07 23:47:00,76.2,71.7,29.92,SSE,155,0.0,0.0,86,0.00,,,0.00,WeatherCatV1.15B25,2013-07-08 03:47:00,
2013-07-07 23:52:00,76.1,71.6,29.92,SSE,155,0.0,0.0,86,0.00,,,0.00,WeatherCatV1.15B25,2013-07-08 03:52:00,
2013-07-07 23:57:00,75.9,71.7,29.92,SSE,155,0.0,0.0,87,0.00,,,0.00,WeatherCatV1.15B25,2013-07-08 03:57:00,